TimeMST,TemperatureF,Dew PointF,Humidity,Sea Level PressureIn,VisibilityMPH,Wind Direction,Wind SpeedMPH,Gust SpeedMPH,PrecipitationIn,Events,Conditions,WindDirDegrees,DateUTC
12:53 AM,19.9,15.1,81,30.19,10.0,Calm,Calm,-,N/A,,Overcast,0,2013-12-12 07:53:00
1:53 AM,17.1,12.0,81,30.18,10.0,ESE,6.9,-,N/A,,Overcast,110,2013-12-12 08:53:00
2:53 AM,18.0,12.9,81,30.18,10.0,East,8.1,-,N/A,,Overcast,100,2013-12-12 09:53:00
3:53 AM,19.0,14.0,81,30.17,10.0,SE,5.8,-,N/A,,Overcast,130,2013-12-12 10:53:00
4:53 AM,18.0,14.0,84,30.17,10.0,SE,3.5,-,N/A,,Clear,140,2013-12-12 11:53:00
5:53 AM,21.9,17.1,82,30.15,10.0,SSW,3.5,-,N/A,,Partly Cloudy,210,2013-12-12 12:53:00
6:53 AM,21.9,17.1,82,30.14,10.0,WSW,5.8,-,N/A,,Clear,250,2013-12-12 13:53:00
7:53 AM,19.9,16.0,85,30.15,10.0,WSW,6.9,-,N/A,,Clear,240,2013-12-12 14:53:00
8:53 AM,19.9,17.1,89,30.16,10.0,Calm,Calm,-,N/A,,Clear,0,2013-12-12 15:53:00
9:53 AM,23.0,18.0,81,30.15,10.0,SSW,4.6,-,N/A,,Clear,200,2013-12-12 16:53:00
10:53 AM,26.1,19.0,75,30.14,10.0,SW,4.6,-,N/A,,Clear,220,2013-12-12 17:53:00
11:53 AM,27.0,19.9,75,30.11,10.0,Calm,Calm,-,N/A,,Clear,0,2013-12-12 18:53:00
12:53 PM,30.9,21.0,67,30.08,10.0,Calm,Calm,-,N/A,,Clear,0,2013-12-12 19:53:00
1:53 PM,30.0,21.9,72,30.06,10.0,East,5.8,-,N/A,,Clear,80,2013-12-12 20:53:00
2:53 PM,28.0,21.0,75,30.04,10.0,East,6.9,-,N/A,,Clear,100,2013-12-12 21:53:00
3:53 PM,25.0,19.9,81,30.03,10.0,East,9.2,-,N/A,,Clear,100,2013-12-12 22:53:00
4:53 PM,24.1,19.9,84,30.02,10.0,East,12.7,-,N/A,,Clear,90,2013-12-12 23:53:00
5:53 PM,23.0,19.0,85,30.00,10.0,East,11.5,-,N/A,,Clear,100,2013-12-13 00:53:00
6:53 PM,19.9,17.1,89,30.01,10.0,ESE,17.3,-,N/A,,Clear,110,2013-12-13 01:53:00
7:53 PM,16.0,12.9,88,30.00,10.0,East,16.1,-,N/A,,Clear,100,2013-12-13 02:53:00
8:53 PM,12.9,10.9,92,30.01,10.0,East,16.1,-,N/A,,Clear,100,2013-12-13 03:53:00
9:53 PM,10.9,9.0,92,30.02,10.0,East,12.7,-,N/A,,Clear,90,2013-12-13 04:53:00
10:53 PM,10.0,8.1,92,30.02,10.0,East,8.1,-,N/A,,Clear,100,2013-12-13 05:53:00
11:53 PM,10.0,7.0,87,30.03,10.0,East,10.4,-,N/A,,Clear,90,2013-12-13 06:53:00